| time (UTC) | temp C | wind direction | speed KPH | gust KPH | rain 1hr cm | rain 24hr cm | rain mn cm | humidity % | barometer mb |
| 20260503072532 | 21 | 343 | 0.0 | 4.8 | 0.00 | 0.81 | 0.00 | 91 | 1013.3 |
| 20260503072031 | 21 | 343 | 1.6 | 4.8 | 0.00 | 0.81 | 0.00 | 91 | 1013.5 |
| 20260503071534 | 21 | 5 | 1.6 | 4.8 | 0.00 | 0.81 | 0.00 | 91 | 1013.5 |
| 20260503071028 | 21 | 355 | 1.6 | 4.8 | 0.00 | 0.81 | 0.00 | 91 | 1013.6 |
| 20260503070528 | 21 | 355 | 1.6 | 4.8 | 0.00 | 0.81 | 0.00 | 91 | 1013.7 |
| 20260503055022 | 21 | 270 | 1.6 | 3.2 | 0.00 | 0.81 | 0.00 | 92 | 1014.1 |
| 20260503054524 | 21 | 160 | 0.0 | 1.6 | 0.00 | 0.81 | 0.00 | 92 | 1014.0 |
| 20260503054021 | 21 | 159 | 0.0 | 0.0 | 0.00 | 0.81 | 0.00 | 92 | 1013.9 |
| 20260503053520 | 21 | 159 | 0.0 | 0.0 | 0.00 | 0.81 | 0.00 | 92 | 1014.0 |
| 20260503053031 | 21 | 159 | 0.0 | 0.0 | 0.00 | 0.81 | 0.00 | 92 | 1014.2 |
| 20260503052530 | 21 | 159 | 0.0 | 0.0 | 0.00 | 0.81 | 0.00 | 92 | 1014.3 |
| 20260503052018 | 21 | 159 | 0.0 | 0.0 | 0.00 | 0.81 | 0.00 | 92 | 1014.2 |
| 20260503051517 | 21 | 159 | 0.0 | 0.0 | 0.00 | 0.81 | 0.00 | 92 | 1014.2 |
| 20260503051018 | 21 | 159 | 0.0 | 0.0 | 0.00 | 0.81 | 0.00 | 92 | 1014.2 |
| 20260503050516 | 21 | 159 | 0.0 | 0.0 | 0.00 | 0.81 | 0.00 | 92 | 1014.2 |
| 20260503050016 | 21 | 159 | 0.0 | 0.0 | 0.00 | 0.81 | 0.00 | 92 | 1014.3 |
| 20260503045517 | 21 | 159 | 0.0 | 0.0 | 0.00 | 0.81 | 0.00 | 92 | 1014.4 |
| 20260503045016 | 21 | 159 | 0.0 | 0.0 | 0.00 | 0.81 | 0.00 | 92 | 1014.5 |
| 20260503044531 | 21 | 159 | 0.0 | 1.6 | 0.00 | 0.81 | 0.00 | 92 | 1014.5 |
| 20260503044014 | 21 | 159 | 0.0 | 1.6 | 0.00 | 0.81 | 0.00 | 92 | 1014.4 |
| 20260503043515 | 21 | 159 | 0.0 | 4.8 | 0.00 | 0.81 | 0.00 | 92 | 1014.1 |
| 20260503043014 | 21 | 159 | 0.0 | 4.8 | 0.00 | 0.81 | 0.00 | 92 | 1014.2 |
| 20260503042513 | 21 | 145 | 1.6 | 4.8 | 0.00 | 0.81 | 0.00 | 92 | 1014.4 |
| 20260503042012 | 21 | 145 | 0.0 | 3.2 | 0.00 | 0.81 | 0.00 | 92 | 1014.2 |
| 20260503041510 | 21 | 144 | 0.0 | 0.0 | 0.00 | 0.81 | 0.00 | 92 | 1014.3 |
| 20260503041008 | 21 | 144 | 0.0 | 0.0 | 0.00 | 0.81 | 0.00 | 92 | 1014.3 |
| 20260503040513 | 21 | 144 | 0.0 | 0.0 | 0.00 | 0.81 | 0.00 | 91 | 1014.3 |
| 20260503040011 | 21 | 144 | 0.0 | 0.0 | 0.00 | 0.81 | 0.81 | 91 | 1014.4 |
| 20260503035506 | 21 | 144 | 0.0 | 0.0 | 0.00 | 0.81 | 0.81 | 91 | 1014.1 |
| 20260503035005 | 21 | 144 | 0.0 | 0.0 | 0.00 | 0.81 | 0.81 | 91 | 1014.1 |
| 20260503034504 | 21 | 144 | 0.0 | 0.0 | 0.00 | 0.81 | 0.81 | 91 | 1013.9 |
| 20260503034002 | 21 | 144 | 0.0 | 0.0 | 0.00 | 0.81 | 0.81 | 91 | 1013.6 |
| 20260503033503 | 21 | 144 | 0.0 | 0.0 | 0.00 | 0.81 | 0.81 | 91 | 1013.5 |
| 20260503033003 | 21 | 144 | 0.0 | 0.0 | 0.00 | 0.81 | 0.81 | 91 | 1013.5 |
| 20260503032503 | 21 | 144 | 0.0 | 1.6 | 0.00 | 0.81 | 0.81 | 91 | 1013.4 |
| 20260503032005 | 21 | 144 | 0.0 | 3.2 | 0.00 | 0.81 | 0.81 | 91 | 1013.5 |
| 20260503031503 | 21 | 144 | 0.0 | 1.6 | 0.00 | 0.81 | 0.81 | 92 | 1013.4 |
| 20260503031002 | 21 | 144 | 0.0 | 0.0 | 0.00 | 0.81 | 0.81 | 91 | 1013.3 |
| 20260503030503 | 21 | 144 | 0.0 | 0.0 | 0.00 | 0.81 | 0.81 | 91 | 1013.2 |
| 20260503030003 | 21 | 144 | 0.0 | 1.6 | 0.00 | 0.81 | 0.81 | 91 | 1013.1 |
| 20260503025502 | 21 | 144 | 0.0 | 1.6 | 0.00 | 0.81 | 0.81 | 91 | 1013.1 |
| 20260503025002 | 21 | 144 | 0.0 | 3.2 | 0.00 | 0.81 | 0.81 | 91 | 1013.0 |
| 20260503024501 | 21 | 144 | 0.0 | 3.2 | 0.00 | 0.81 | 0.81 | 91 | 1012.9 |
| 20260503024002 | 21 | 144 | 0.0 | 3.2 | 0.00 | 0.81 | 0.81 | 91 | 1013.2 |
| 20260503023501 | 21 | 144 | 0.0 | 1.6 | 0.00 | 0.81 | 0.81 | 91 | 1013.6 |
| 20260503023001 | 21 | 144 | 0.0 | 0.0 | 0.00 | 0.81 | 0.81 | 91 | 1013.5 |
| 20260503022501 | 21 | 144 | 0.0 | 0.0 | 0.00 | 0.81 | 0.81 | 91 | 1013.2 |
| 20260503022100 | 21 | 144 | 0.0 | 1.6 | 0.00 | 0.81 | 0.81 | 91 | 1012.8 |
| 20260503022001 | 21 | 144 | 0.0 | 1.6 | 0.00 | 0.81 | 0.81 | 92 | 1012.9 |
| 20260503021603 | 21 | 144 | 0.0 | 1.6 | 0.00 | 0.81 | 0.81 | 92 | 1012.8 |
| 20260503021059 | 21 | 144 | 0.0 | 0.0 | 0.00 | 0.81 | 0.81 | 92 | 1012.9 |
| 20260503020600 | 21 | 144 | 0.0 | 0.0 | 0.00 | 0.81 | 0.81 | 91 | 1013.2 |
| 20260503020114 | 21 | 144 | 0.0 | 4.8 | 0.00 | 0.81 | 0.81 | 91 | 1013.2 |
| 20260503015559 | 21 | 144 | 0.0 | 4.8 | 0.00 | 0.81 | 0.81 | 92 | 1013.1 |
| 20260503015058 | 21 | 144 | 0.0 | 3.2 | 0.03 | 0.81 | 0.81 | 92 | 1013.3 |
| 20260503014615 | 21 | 144 | 0.0 | 3.2 | 0.03 | 0.81 | 0.81 | 92 | 1013.2 |
| 20260503014058 | 21 | 144 | 0.0 | 3.2 | 0.03 | 0.81 | 0.81 | 92 | 1013.2 |
| 20260503013559 | 21 | 144 | 0.0 | 3.2 | 0.03 | 0.81 | 0.81 | 92 | 1013.2 |
| 20260503013116 | 21 | 144 | 0.0 | 3.2 | 0.03 | 0.81 | 0.81 | 92 | 1013.3 |
| 20260503012600 | 21 | 144 | 0.0 | 1.6 | 0.03 | 0.81 | 0.81 | 92 | 1013.0 |
| 20260503012056 | 21 | 144 | 0.0 | 4.8 | 0.03 | 0.81 | 0.81 | 92 | 1013.0 |
| 20260503011556 | 21 | 144 | 0.0 | 4.8 | 0.03 | 0.81 | 0.81 | 92 | 1012.5 |
| 20260503011056 | 21 | 136 | 1.6 | 4.8 | 0.03 | 0.81 | 0.81 | 91 | 1011.8 |
| 20260503010554 | 21 | 138 | 0.0 | 3.2 | 0.03 | 0.81 | 0.81 | 91 | 1011.5 |
| 20260503010055 | 21 | 138 | 0.0 | 4.8 | 0.03 | 0.81 | 0.81 | 91 | 1011.9 |
| 20260503005556 | 21 | 138 | 1.6 | 4.8 | 0.03 | 0.81 | 0.81 | 91 | 1011.7 |
| 20260503005055 | 21 | 144 | 0.0 | 0.0 | 0.00 | 0.79 | 0.79 | 91 | 1011.9 |
| 20260503004603 | 21 | 144 | 0.0 | 0.0 | 0.00 | 0.79 | 0.79 | 91 | 1012.2 |
| 20260503004053 | 21 | 144 | 0.0 | 0.0 | 0.00 | 0.79 | 0.79 | 91 | 1012.3 |
| 20260503003554 | 21 | 144 | 0.0 | 0.0 | 0.00 | 0.79 | 0.79 | 91 | 1012.3 |
| 20260503003054 | 21 | 144 | 0.0 | 0.0 | 0.00 | 0.79 | 0.79 | 91 | 1011.7 |
| 20260503002557 | 21 | 144 | 0.0 | 0.0 | 0.00 | 0.79 | 0.79 | 91 | 1011.7 |
| 20260503002053 | 21 | 144 | 0.0 | 0.0 | 0.00 | 0.79 | 0.79 | 91 | 1011.8 |
| 20260503001556 | 21 | 144 | 0.0 | 3.2 | 0.03 | 0.79 | 0.79 | 91 | 1011.5 |
| 20260503001055 | 21 | 144 | 0.0 | 4.8 | 0.03 | 0.79 | 0.79 | 91 | 1011.6 |
| 20260503000553 | 21 | 144 | 0.0 | 4.8 | 0.03 | 0.79 | 0.79 | 91 | 1011.7 |
| 20260502235552 | 21 | 200 | 0.0 | 6.4 | 0.05 | 0.79 | 0.79 | 91 | 1012.1 |
| 20260502235053 | 21 | 219 | 1.6 | 14.5 | 0.05 | 0.79 | 0.79 | 91 | 1011.7 |
| 20260502234603 | 22 | 176 | 6.4 | 14.5 | 0.05 | 0.79 | 0.79 | 91 | 1010.9 |
| 20260502234053 | 22 | 144 | 4.8 | 12.9 | 0.05 | 0.79 | 0.79 | 91 | 1010.9 |
| 20260502233553 | 22 | 163 | 1.6 | 4.8 | 0.05 | 0.79 | 0.79 | 91 | 1011.3 |
| 20260502233052 | 22 | 134 | 0.0 | 3.2 | 0.05 | 0.79 | 0.79 | 91 | 1011.5 |
| 20260502232552 | 22 | 140 | 0.0 | 4.8 | 0.05 | 0.79 | 0.79 | 91 | 1011.7 |
| 20260502232051 | 22 | 133 | 0.0 | 4.8 | 0.08 | 0.79 | 0.79 | 91 | 1011.4 |
| 20260502231552 | 22 | 124 | 0.0 | 4.8 | 0.08 | 0.76 | 0.76 | 90 | 1011.4 |
| 20260502231051 | 22 | 130 | 0.0 | 3.2 | 0.10 | 0.76 | 0.76 | 90 | 1011.8 |
| 20260502230551 | 22 | 130 | 1.6 | 3.2 | 0.10 | 0.71 | 0.71 | 90 | 1011.9 |
| 20260502230052 | 22 | 116 | 0.0 | 4.8 | 0.13 | 0.71 | 0.71 | 90 | 1011.8 |
| 20260502225553 | 22 | 114 | 0.0 | 3.2 | 0.15 | 0.71 | 0.71 | 90 | 1011.4 |
| 20260502225050 | 22 | 114 | 0.0 | 0.0 | 0.18 | 0.71 | 0.71 | 90 | 1011.2 |
| 20260502224551 | 22 | 114 | 0.0 | 1.6 | 0.18 | 0.71 | 0.71 | 90 | 1011.5 |
| 20260502224052 | 22 | 114 | 0.0 | 4.8 | 0.20 | 0.71 | 0.71 | 90 | 1011.4 |
| 20260502223555 | 22 | 114 | 0.0 | 4.8 | 0.20 | 0.71 | 0.71 | 90 | 1011.8 |
| 20260502223101 | 22 | 171 | 0.0 | 4.8 | 0.20 | 0.71 | 0.71 | 90 | 1011.8 |
| 20260502222550 | 22 | 111 | 1.6 | 3.2 | 0.20 | 0.71 | 0.71 | 90 | 1011.3 |
| 20260502222050 | 22 | 111 | 0.0 | 3.2 | 0.18 | 0.71 | 0.71 | 90 | 1011.2 |
| 20260502221552 | 22 | 111 | 0.0 | 6.4 | 0.18 | 0.69 | 0.69 | 89 | 1011.4 |
| 20260502221049 | 22 | 111 | 1.6 | 6.4 | 0.20 | 0.66 | 0.66 | 89 | 1011.7 |
| 20260502220549 | 22 | 126 | 1.6 | 4.8 | 0.25 | 0.64 | 0.64 | 89 | 1011.6 |
| 20260502220056 | 22 | 188 | 0.0 | 6.4 | 0.23 | 0.61 | 0.61 | 89 | 1011.7 |
| 20260502215549 | 22 | 146 | 0.0 | 3.2 | 0.28 | 0.58 | 0.58 | 88 | 1011.6 |
| 20260502215048 | 23 | 123 | 0.0 | 3.2 | 0.38 | 0.56 | 0.56 | 88 | 1011.4 |
| 20260502214609 | 23 | 123 | 0.0 | 3.2 | 0.41 | 0.56 | 0.56 | 87 | 1011.7 |
| 20260502214049 | 23 | 123 | 0.0 | 3.2 | 0.41 | 0.53 | 0.53 | 87 | 1011.5 |
| 20260502213552 | 23 | 123 | 0.0 | 3.2 | 0.43 | 0.53 | 0.53 | 87 | 1011.4 |
| 20260502213106 | 23 | 123 | 0.0 | 1.6 | 0.53 | 0.53 | 0.53 | 86 | 1011.4 |
| 20260502212548 | 23 | 123 | 0.0 | 3.2 | 0.53 | 0.53 | 0.53 | 85 | 1011.5 |
| 20260502212049 | 23 | 123 | 0.0 | 4.8 | 0.53 | 0.53 | 0.53 | 85 | 1011.5 |
| 20260502211553 | 23 | 123 | 0.0 | 4.8 | 0.51 | 0.51 | 0.51 | 85 | 1011.3 |
| 20260502211048 | 23 | 92 | 0.0 | 6.4 | 0.43 | 0.43 | 0.43 | 84 | 1011.2 |
| 20260502210547 | 23 | 74 | 1.6 | 6.4 | 0.38 | 0.38 | 0.38 | 83 | 1011.2 |
| 20260502210049 | 24 | 238 | 0.0 | 4.8 | 0.38 | 0.38 | 0.38 | 82 | 1011.8 |
| 20260502205551 | 24 | 344 | 0.0 | 4.8 | 0.28 | 0.28 | 0.28 | 81 | 1011.5 |
| 20260502205047 | 25 | 336 | 1.6 | 4.8 | 0.18 | 0.18 | 0.18 | 80 | 1011.4 |
| 20260502204547 | 26 | 341 | 1.6 | 8.0 | 0.15 | 0.15 | 0.15 | 80 | 1011.1 |
| 20260502204049 | 26 | 338 | 1.6 | 8.0 | 0.13 | 0.13 | 0.13 | 79 | 1011.1 |
| 20260502203547 | 27 | 288 | 1.6 | 9.7 | 0.10 | 0.10 | 0.10 | 78 | 1010.9 |
| 20260502203108 | 27 | 344 | 3.2 | 11.3 | 0.00 | 0.00 | 0.00 | 81 | 1010.9 |
| 20260502202551 | 27 | 209 | 3.2 | 14.5 | 0.00 | 0.00 | 0.00 | 81 | 1010.4 |
| 20260502202046 | 27 | 246 | 4.8 | 11.3 | 0.00 | 0.00 | 0.00 | 81 | 1010.4 |
| 20260502201546 | 27 | 228 | 3.2 | 11.3 | 0.00 | 0.00 | 0.00 | 81 | 1010.7 |
| 20260502201050 | 27 | 300 | 4.8 | 14.5 | 0.00 | 0.00 | 0.00 | 80 | 1010.6 |
| 20260502200546 | 27 | 217 | 4.8 | 14.5 | 0.00 | 0.00 | 0.00 | 80 | 1010.8 |
| 20260502200054 | 27 | 211 | 3.2 | 11.3 | 0.00 | 0.00 | 0.00 | 81 | 1010.6 |
| 20260502195545 | 27 | 271 | 4.8 | 14.5 | 0.00 | 0.00 | 0.00 | 81 | 1010.7 |
| 20260502195045 | 27 | 234 | 3.2 | 8.0 | 0.00 | 0.00 | 0.00 | 81 | 1010.5 |
| 20260502194545 | 27 | 226 | 4.8 | 11.3 | 0.00 | 0.00 | 0.00 | 80 | 1010.8 |
| 20260502194045 | 27 | 318 | 3.2 | 12.9 | 0.00 | 0.00 | 0.00 | 79 | 1011.0 |
| 20260502193545 | 28 | 247 | 6.4 | 12.9 | 0.00 | 0.00 | 0.00 | 79 | 1011.0 |
| 20260502193047 | 28 | 325 | 3.2 | 12.9 | 0.00 | 0.00 | 0.00 | 79 | 1011.1 |
| 20260502192544 | 28 | 38 | 4.8 | 16.1 | 0.00 | 0.00 | 0.00 | 78 | 1011.3 |
| 20260502192044 | 28 | 259 | 4.8 | 16.1 | 0.00 | 0.00 | 0.00 | 78 | 1011.2 |
| 20260502191548 | 28 | 305 | 3.2 | 17.7 | 0.00 | 0.00 | 0.00 | 78 | 1011.2 |
| 20260502191044 | 28 | 193 | 3.2 | 17.7 | 0.00 | 0.00 | 0.00 | 77 | 1011.3 |
| 20260502190546 | 28 | 259 | 8.0 | 17.7 | 0.00 | 0.00 | 0.00 | 76 | 1011.3 |
| 20260502190044 | 28 | 223 | 1.6 | 12.9 | 0.00 | 0.00 | 0.00 | 77 | 1011.3 |
| 20260502185543 | 28 | 213 | 3.2 | 17.7 | 0.00 | 0.00 | 0.00 | 77 | 1011.3 |
| 20260502185048 | 28 | 231 | 4.8 | 17.7 | 0.00 | 0.00 | 0.00 | 76 | 1011.2 |
| 20260502184543 | 28 | 233 | 6.4 | 16.1 | 0.00 | 0.00 | 0.00 | 75 | 1011.4 |
| 20260502184044 | 28 | 242 | 3.2 | 16.1 | 0.00 | 0.00 | 0.00 | 75 | 1011.3 |
| 20260502183543 | 29 | 307 | 3.2 | 14.5 | 0.00 | 0.00 | 0.00 | 76 | 1011.4 |
| 20260502183044 | 29 | 217 | 3.2 | 17.7 | 0.00 | 0.00 | 0.00 | 75 | 1011.5 |
| 20260502182545 | 29 | 247 | 4.8 | 17.7 | 0.00 | 0.00 | 0.00 | 75 | 1011.5 |
| 20260502182044 | 29 | 221 | 6.4 | 14.5 | 0.00 | 0.00 | 0.00 | 76 | 1011.4 |
| 20260502181544 | 29 | 265 | 4.8 | 16.1 | 0.00 | 0.00 | 0.00 | 76 | 1011.5 |
| 20260502181041 | 29 | 221 | 4.8 | 17.7 | 0.00 | 0.00 | 0.00 | 76 | 1011.6 |
| 20260502180541 | 29 | 264 | 6.4 | 17.7 | 0.00 | 0.00 | 0.00 | 77 | 1011.8 |
| 20260502164041 | 28 | 223 | 8.0 | 17.7 | 0.00 | 0.00 | 0.00 | 79 | 1012.2 |
| 20260502163539 | 28 | 226 | 6.4 | 17.7 | 0.00 | 0.00 | 0.00 | 78 | 1012.2 |
| 20260502163047 | 28 | 244 | 6.4 | 17.7 | 0.00 | 0.00 | 0.00 | 78 | 1012.2 |
| 20260502162538 | 28 | 180 | 6.4 | 16.1 | 0.00 | 0.00 | 0.00 | 78 | 1012.3 |
| 20260502162040 | 29 | 242 | 6.4 | 16.1 | 0.00 | 0.00 | 0.00 | 78 | 1012.3 |
| 20260502161554 | 29 | 219 | 6.4 | 16.1 | 0.00 | 0.00 | 0.00 | 78 | 1012.2 |
| 20260502161037 | 29 | 300 | 6.4 | 16.1 | 0.00 | 0.00 | 0.00 | 77 | 1012.3 |
| 20260502160537 | 29 | 276 | 6.4 | 17.7 | 0.00 | 0.00 | 0.00 | 77 | 1012.3 |
| 20260502152034 | 28 | 205 | 6.4 | 17.7 | 0.00 | 0.00 | 0.00 | 78 | 1011.7 |
| 20260502151531 | 28 | 248 | 6.4 | 17.7 | 0.00 | 0.00 | 0.00 | 78 | 1011.8 |
| 20260502151031 | 28 | 259 | 6.4 | 17.7 | 0.00 | 0.00 | 0.00 | 78 | 1011.8 |
| 20260502150530 | 28 | 137 | 3.2 | 11.3 | 0.00 | 0.00 | 0.00 | 80 | 1011.7 |
| 20260502130602 | 23 | 279 | 1.6 | 6.4 | 0.00 | 0.00 | 0.00 | 95 | 1010.7 |
| 20260502130107 | 22 | 246 | 3.2 | 8.0 | 0.00 | 0.00 | 0.00 | 95 | 1010.7 |
| 20260502123557 | 21 | 121 | 0.0 | 6.4 | 0.00 | 0.00 | 0.00 | 93 | 1010.7 |
| 20260502123112 | 21 | 132 | 3.2 | 6.4 | 0.00 | 0.00 | 0.00 | 93 | 1010.7 |
| 20260502122551 | 20 | 140 | 1.6 | 4.8 | 0.00 | 0.00 | 0.00 | 93 | 1010.7 |
| 20260502122054 | 20 | 138 | 0.0 | 3.2 | 0.00 | 0.00 | 0.00 | 93 | 1010.6 |
| 20260502121555 | 20 | 138 | 0.0 | 4.8 | 0.00 | 0.00 | 0.00 | 92 | 1010.5 |
| 20260502121048 | 20 | 138 | 1.6 | 4.8 | 0.00 | 0.00 | 0.00 | 92 | 1010.7 |
| 20260502120548 | 20 | 138 | 0.0 | 4.8 | 0.00 | 0.00 | 0.00 | 92 | 1010.5 |
| 20260502115546 | 20 | 138 | 0.0 | 4.8 | 0.00 | 0.00 | 0.00 | 92 | 1010.5 |
| 20260502115045 | 20 | 138 | 0.0 | 4.8 | 0.00 | 0.00 | 0.00 | 92 | 1010.5 |
| 20260502114546 | 20 | 129 | 1.6 | 4.8 | 0.00 | 0.00 | 0.00 | 92 | 1010.5 |
| 20260502114047 | 20 | 130 | 1.6 | 6.4 | 0.00 | 0.00 | 0.00 | 92 | 1010.4 |
| 20260502113544 | 20 | 116 | 1.6 | 6.4 | 0.00 | 0.00 | 0.00 | 91 | 1010.4 |
| 20260502113049 | 19 | 127 | 3.2 | 6.4 | 0.00 | 0.00 | 0.00 | 91 | 1010.5 |
| 20260502112543 | 19 | 118 | 1.6 | 4.8 | 0.00 | 0.00 | 0.00 | 91 | 1010.4 |
| 20260502112042 | 19 | 163 | 1.6 | 4.8 | 0.00 | 0.00 | 0.00 | 91 | 1010.4 |
| 20260502111544 | 19 | 130 | 0.0 | 6.4 | 0.00 | 0.00 | 0.00 | 91 | 1010.3 |
| 20260502111041 | 19 | 131 | 3.2 | 8.0 | 0.00 | 0.00 | 0.00 | 91 | 1010.2 |
| 20260502110540 | 19 | 108 | 1.6 | 4.8 | 0.00 | 0.00 | 0.00 | 91 | 1010.2 |
| 20260502110042 | 19 | 130 | 3.2 | 9.7 | 0.00 | 0.00 | 0.00 | 91 | 1010.0 |
| 20260502105540 | 20 | 160 | 3.2 | 9.7 | 0.00 | 0.00 | 0.00 | 91 | 1010.0 |
| 20260502105038 | 20 | 134 | 3.2 | 8.0 | 0.00 | 0.00 | 0.00 | 91 | 1010.1 |
| 20260502104539 | 20 | 154 | 1.6 | 8.0 | 0.00 | 0.00 | 0.00 | 91 | 1010.1 |
| 20260502104039 | 20 | 160 | 3.2 | 8.0 | 0.00 | 0.00 | 0.00 | 91 | 1010.2 |
| 20260502103538 | 20 | 130 | 3.2 | 6.4 | 0.00 | 0.00 | 0.00 | 91 | 1010.1 |
| 20260502103042 | 20 | 122 | 3.2 | 8.0 | 0.00 | 0.00 | 0.00 | 91 | 1010.1 |
| 20260502102538 | 20 | 144 | 3.2 | 8.0 | 0.00 | 0.00 | 0.00 | 91 | 1010.2 |
| 20260502102036 | 20 | 126 | 1.6 | 4.8 | 0.00 | 0.00 | 0.00 | 91 | 1010.3 |
| 20260502101540 | 20 | 119 | 3.2 | 6.4 | 0.00 | 0.00 | 0.00 | 91 | 1010.3 |
| 20260502101035 | 20 | 138 | 1.6 | 6.4 | 0.00 | 0.00 | 0.00 | 91 | 1010.4 |
| 20260502100535 | 20 | 135 | 1.6 | 6.4 | 0.00 | 0.00 | 0.00 | 91 | 1010.4 |
| 20260502091531 | 20 | 232 | 0.0 | 3.2 | 0.00 | 0.00 | 0.00 | 89 | 1010.6 |
| 20260502091030 | 20 | 232 | 0.0 | 1.6 | 0.00 | 0.00 | 0.00 | 89 | 1010.5 |
| 20260502090529 | 20 | 232 | 0.0 | 0.0 | 0.00 | 0.00 | 0.00 | 89 | 1010.6 |
| 20260502090130 | 20 | 232 | 0.0 | 0.0 | 0.00 | 0.00 | 0.00 | 89 | 1010.6 |